Time,TemperatureF,DewpointF,PressureIn,WindDirection,WindDirectionDegrees,WindSpeedMPH,WindSpeedGustMPH,Humidity,HourlyPrecipIn,Conditions,Clouds,dailyrainin,SoftwareType,DateUTC
2013-05-07 00:00:00,46.2,36.6,30.32,SE,144,0.0,0.0,69,0.00,NA,NA,-99.99,VWS Version 10.38,2013-05-07 04:00:00,
2013-05-07 00:05:00,46.0,36.5,30.32,SE,144,0.0,0.0,69,0.00,NA,NA,-99.99,VWS Version 10.38,2013-05-07 04:05:00,
2013-05-07 00:10:00,45.9,36.3,30.32,SE,144,0.0,0.0,69,0.00,NA,NA,-99.99,VWS Version 10.38,2013-05-07 04:10:00,
2013-05-07 00:15:00,45.7,36.5,30.32,SE,144,0.0,0.0,70,0.00,NA,NA,-99.99,VWS Version 10.38,2013-05-07 04:15:00,
2013-05-07 00:25:00,45.5,36.3,30.32,SE,144,0.0,0.0,70,0.00,NA,NA,-99.99,VWS Version 10.38,2013-05-07 04:25:00,
2013-05-07 00:30:00,45.3,36.5,30.32,SE,144,0.0,0.0,71,0.00,NA,NA,-99.99,VWS Version 10.38,2013-05-07 04:30:00,
2013-05-07 00:35:00,45.3,36.5,30.32,SE,144,0.0,0.0,71,0.00,NA,NA,-99.99,VWS Version 10.38,2013-05-07 04:35:00,
2013-05-07 00:40:00,45.1,36.3,30.32,SE,144,0.0,0.0,71,0.00,NA,NA,-99.99,VWS Version 10.38,2013-05-07 04:40:00,
2013-05-07 00:45:00,45.0,36.1,30.32,SE,144,0.0,0.0,71,0.00,NA,NA,-99.99,VWS Version 10.38,2013-05-07 04:45:00,
2013-05-07 00:50:00,44.8,36.3,30.32,SE,144,0.0,0.0,72,0.00,NA,NA,-99.99,VWS Version 10.38,2013-05-07 04:50:00,
2013-05-07 00:59:00,44.6,36.2,30.32,SE,144,0.0,0.0,72,0.00,NA,NA,-99.99,VWS Version 10.38,2013-05-07 04:59:00,
2013-05-07 01:04:00,44.4,36.3,30.32,SE,144,0.0,0.0,73,0.00,NA,NA,-99.99,VWS Version 10.38,2013-05-07 05:04:00,
2013-05-07 01:09:00,44.2,36.2,30.32,SE,144,0.0,0.0,73,0.00,NA,NA,-99.99,VWS Version 10.38,2013-05-07 05:09:00,
2013-05-07 01:14:00,44.2,36.2,30.32,SE,144,0.0,0.0,73,0.00,NA,NA,-99.99,VWS Version 10.38,2013-05-07 05:14:00,
2013-05-07 01:19:00,44.1,36.3,30.32,SE,144,0.0,0.0,74,0.00,NA,NA,-99.99,VWS Version 10.38,2013-05-07 05:19:00,
2013-05-07 01:24:00,44.1,36.3,30.32,SE,144,0.0,0.0,74,0.00,NA,NA,-99.99,VWS Version 10.38,2013-05-07 05:24:00,
2013-05-07 01:34:00,43.7,36.0,30.32,SE,144,0.0,0.0,74,0.00,NA,NA,-99.99,VWS Version 10.38,2013-05-07 05:34:00,
2013-05-07 01:39:00,43.7,36.0,30.32,SE,144,0.0,0.0,74,0.00,NA,NA,-99.99,VWS Version 10.38,2013-05-07 05:39:00,
2013-05-07 01:44:00,43.5,36.1,30.32,SE,144,0.0,0.0,75,0.00,NA,NA,-99.99,VWS Version 10.38,2013-05-07 05:44:00,
2013-05-07 01:49:00,43.3,36.0,30.32,SE,144,0.0,0.0,75,0.00,NA,NA,-99.99,VWS Version 10.38,2013-05-07 05:49:00,
2013-05-07 01:54:00,43.3,36.0,30.29,SE,144,0.0,0.0,75,0.00,NA,NA,-99.99,VWS Version 10.38,2013-05-07 05:54:00,
2013-05-07 01:59:00,43.2,35.8,30.29,SE,144,0.0,0.0,75,0.00,NA,NA,-99.99,VWS Version 10.38,2013-05-07 05:59:00,
2013-05-07 02:09:00,43.0,36.0,30.29,SE,144,0.0,0.0,76,0.00,NA,NA,-99.99,VWS Version 10.38,2013-05-07 06:09:00,
2013-05-07 02:14:00,43.0,36.0,30.29,SE,144,0.0,0.0,76,0.00,NA,NA,-99.99,VWS Version 10.38,2013-05-07 06:14:00,
2013-05-07 02:19:00,42.8,35.8,30.29,SE,144,0.0,0.0,76,0.00,NA,NA,-99.99,VWS Version 10.38,2013-05-07 06:19:00,
2013-05-07 02:24:00,42.6,35.9,30.29,SE,144,0.0,0.0,77,0.00,NA,NA,-99.99,VWS Version 10.38,2013-05-07 06:24:00,
2013-05-07 02:29:00,42.6,35.9,30.29,SE,144,0.0,0.0,77,0.00,NA,NA,-99.99,VWS Version 10.38,2013-05-07 06:29:00,
2013-05-07 02:34:00,42.6,35.9,30.29,SE,144,0.0,0.0,77,0.00,NA,NA,-99.99,VWS Version 10.38,2013-05-07 06:34:00,
2013-05-07 02:44:00,42.4,35.8,30.29,SE,144,0.0,0.0,77,0.00,NA,NA,-99.99,VWS Version 10.38,2013-05-07 06:44:00,
2013-05-07 02:49:00,42.3,35.6,30.29,SE,144,0.0,0.0,77,0.00,NA,NA,-99.99,VWS Version 10.38,2013-05-07 06:49:00,
2013-05-07 02:54:00,42.3,35.6,30.29,SE,144,0.0,0.0,77,0.00,NA,NA,-99.99,VWS Version 10.38,2013-05-07 06:54:00,
2013-05-07 02:59:00,42.1,35.7,30.29,SE,144,0.0,0.0,78,0.00,NA,NA,-99.99,VWS Version 10.38,2013-05-07 06:59:00,
2013-05-07 03:04:00,42.1,35.7,30.29,SE,144,0.0,0.0,78,0.00,NA,NA,-99.99,VWS Version 10.38,2013-05-07 07:04:00,
2013-05-07 03:09:00,42.1,35.7,30.29,SE,144,0.0,0.0,78,0.00,NA,NA,-99.99,VWS Version 10.38,2013-05-07 07:09:00,
2013-05-07 03:19:00,41.9,35.5,30.29,SE,144,0.0,0.0,78,0.00,NA,NA,-99.99,VWS Version 10.38,2013-05-07 07:19:00,
2013-05-07 03:24:00,41.7,35.4,30.29,SE,144,0.0,0.0,78,0.00,NA,NA,-99.99,VWS Version 10.38,2013-05-07 07:24:00,
2013-05-07 03:29:00,41.7,35.7,30.29,SE,144,0.0,0.0,79,0.00,NA,NA,-99.99,VWS Version 10.38,2013-05-07 07:29:00,
2013-05-07 03:34:00,41.7,35.7,30.29,SE,144,0.0,0.0,79,0.00,NA,NA,-99.99,VWS Version 10.38,2013-05-07 07:34:00,
2013-05-07 03:39:00,41.7,35.7,30.29,SE,144,0.0,0.0,79,0.00,NA,NA,-99.99,VWS Version 10.38,2013-05-07 07:39:00,
2013-05-07 03:44:00,41.5,35.5,30.29,SE,144,0.0,0.0,79,0.00,NA,NA,-99.99,VWS Version 10.38,2013-05-07 07:44:00,
2013-05-07 03:54:00,41.4,35.7,30.29,SE,144,0.0,0.0,80,0.00,NA,NA,-99.99,VWS Version 10.38,2013-05-07 07:54:00,
2013-05-07 03:59:00,41.2,35.5,30.29,SE,144,0.0,0.0,80,0.00,NA,NA,-99.99,VWS Version 10.38,2013-05-07 07:59:00,
2013-05-07 04:04:00,41.2,35.5,30.29,SE,144,0.0,0.0,80,0.00,NA,NA,-99.99,VWS Version 10.38,2013-05-07 08:04:00,
2013-05-07 04:09:00,41.2,35.5,30.29,SE,144,0.0,0.0,80,0.00,NA,NA,-99.99,VWS Version 10.38,2013-05-07 08:09:00,
2013-05-07 04:14:00,41.2,35.5,30.29,SE,144,0.0,0.0,80,0.00,NA,NA,-99.99,VWS Version 10.38,2013-05-07 08:14:00,
2013-05-07 04:19:00,41.0,35.3,30.29,SE,144,0.0,0.0,80,0.00,NA,NA,-99.99,VWS Version 10.38,2013-05-07 08:19:00,
2013-05-07 04:29:00,41.0,35.6,30.29,SE,144,0.0,0.0,81,0.00,NA,NA,-99.99,VWS Version 10.38,2013-05-07 08:29:00,
2013-05-07 04:34:00,40.8,35.5,30.29,SE,144,0.0,0.0,81,0.00,NA,NA,-99.99,VWS Version 10.38,2013-05-07 08:34:00,
2013-05-07 04:39:00,40.8,35.5,30.29,SE,144,0.0,0.0,81,0.00,NA,NA,-99.99,VWS Version 10.38,2013-05-07 08:39:00,
2013-05-07 04:44:00,40.6,35.3,30.29,SE,144,0.0,0.0,81,0.00,NA,NA,-99.99,VWS Version 10.38,2013-05-07 08:44:00,
2013-05-07 04:49:00,40.6,35.6,30.29,SE,144,0.0,0.0,82,0.00,NA,NA,-99.99,VWS Version 10.38,2013-05-07 08:49:00,
2013-05-07 04:54:00,40.6,35.6,30.29,SE,144,0.0,0.0,82,0.00,NA,NA,-99.99,VWS Version 10.38,2013-05-07 08:54:00,
2013-05-07 05:04:00,40.5,35.4,30.29,SE,144,0.0,0.0,82,0.00,NA,NA,-99.99,VWS Version 10.38,2013-05-07 09:04:00,
2013-05-07 05:09:00,40.5,35.4,30.29,SE,144,0.0,0.0,82,0.00,NA,NA,-99.99,VWS Version 10.38,2013-05-07 09:09:00,
2013-05-07 05:14:00,40.3,35.2,30.29,SE,144,0.0,0.0,82,0.00,NA,NA,-99.99,VWS Version 10.38,2013-05-07 09:14:00,
2013-05-07 05:19:00,40.3,35.2,30.29,SE,144,0.0,0.0,82,0.00,NA,NA,-99.99,VWS Version 10.38,2013-05-07 09:19:00,
2013-05-07 05:24:00,40.3,35.2,30.29,SE,144,0.0,0.0,82,0.00,NA,NA,-99.99,VWS Version 10.38,2013-05-07 09:24:00,
2013-05-07 05:29:00,40.3,35.2,30.29,SE,144,0.0,0.0,82,0.00,NA,NA,-99.99,VWS Version 10.38,2013-05-07 09:29:00,
2013-05-07 05:39:00,40.3,35.5,30.29,SE,144,0.0,0.0,83,0.00,NA,NA,-99.99,VWS Version 10.38,2013-05-07 09:39:00,
2013-05-07 05:44:00,40.3,35.5,30.29,SE,144,0.0,0.0,83,0.00,NA,NA,-99.99,VWS Version 10.38,2013-05-07 09:44:00,
2013-05-07 05:49:00,40.3,35.5,30.29,SE,144,0.0,0.0,83,0.00,NA,NA,-99.99,VWS Version 10.38,2013-05-07 09:49:00,
2013-05-07 05:54:00,40.3,35.5,30.29,SE,144,0.0,0.0,83,0.00,NA,NA,-99.99,VWS Version 10.38,2013-05-07 09:54:00,
2013-05-07 05:59:00,40.3,35.5,30.29,SE,144,0.0,0.0,83,0.00,NA,NA,-99.99,VWS Version 10.38,2013-05-07 09:59:00,
2013-05-07 06:04:00,40.5,35.7,30.29,SE,144,0.0,0.0,83,0.00,NA,NA,-99.99,VWS Version 10.38,2013-05-07 10:04:00,
2013-05-07 06:14:00,40.5,36.0,30.29,SE,144,0.0,0.0,84,0.00,NA,NA,-99.99,VWS Version 10.38,2013-05-07 10:14:00,
2013-05-07 06:19:00,40.6,36.2,30.29,SE,144,0.0,0.0,84,0.00,NA,NA,-99.99,VWS Version 10.38,2013-05-07 10:19:00,
2013-05-07 06:24:00,40.6,36.2,30.29,SE,144,0.0,0.0,84,0.00,NA,NA,-99.99,VWS Version 10.38,2013-05-07 10:24:00,
2013-05-07 06:29:00,40.8,36.4,30.29,SE,144,0.0,0.0,84,0.00,NA,NA,-99.99,VWS Version 10.38,2013-05-07 10:29:00,
2013-05-07 06:34:00,41.0,36.5,30.29,SE,144,0.0,0.0,84,0.00,NA,NA,-99.99,VWS Version 10.38,2013-05-07 10:34:00,
2013-05-07 06:39:00,41.2,36.7,30.32,SE,144,0.0,0.0,84,0.00,NA,NA,-99.99,VWS Version 10.38,2013-05-07 10:39:00,
2013-05-07 06:49:00,41.7,37.5,30.32,SE,144,0.0,0.0,85,0.00,NA,NA,-99.99,VWS Version 10.38,2013-05-07 10:49:00,
2013-05-07 06:54:00,42.1,37.9,30.32,SE,144,0.0,0.0,85,0.00,NA,NA,-99.99,VWS Version 10.38,2013-05-07 10:54:00,
2013-05-07 06:59:00,42.4,38.3,30.32,SE,144,0.0,0.0,85,0.00,NA,NA,-99.99,VWS Version 10.38,2013-05-07 10:59:00,
2013-05-07 07:04:00,42.8,38.6,30.32,SE,144,0.0,0.0,85,0.00,NA,NA,-99.99,VWS Version 10.38,2013-05-07 11:04:00,
2013-05-07 07:09:00,43.2,39.0,30.32,SE,144,0.0,0.0,85,0.00,NA,NA,-99.99,VWS Version 10.38,2013-05-07 11:09:00,
2013-05-07 07:14:00,43.9,40.0,30.32,SE,144,0.0,0.0,86,0.00,NA,NA,-99.99,VWS Version 10.38,2013-05-07 11:14:00,
2013-05-07 07:24:00,45.9,41.9,30.32,SE,144,0.0,0.0,86,0.00,NA,NA,-99.99,VWS Version 10.38,2013-05-07 11:24:00,
2013-05-07 07:29:00,46.8,42.8,30.32,SE,144,0.0,0.0,86,0.00,NA,NA,-99.99,VWS Version 10.38,2013-05-07 11:29:00,
2013-05-07 07:34:00,47.3,43.3,30.32,SE,144,0.0,0.0,86,0.00,NA,NA,-99.99,VWS Version 10.38,2013-05-07 11:34:00,
2013-05-07 07:39:00,48.6,44.9,30.32,SE,144,0.0,0.0,87,0.00,NA,NA,-99.99,VWS Version 10.38,2013-05-07 11:39:00,
2013-05-07 07:44:00,50.2,46.8,30.32,SE,144,0.0,0.0,88,0.00,NA,NA,-99.99,VWS Version 10.38,2013-05-07 11:44:00,
2013-05-07 07:49:00,51.8,48.4,30.32,SE,144,0.0,0.0,88,0.00,NA,NA,-99.99,VWS Version 10.38,2013-05-07 11:49:00,
2013-05-07 08:00:00,55.6,52.4,30.32,SE,144,0.0,0.0,89,0.00,NA,NA,-99.99,VWS Version 10.38,2013-05-07 12:00:00,
2013-05-07 08:05:00,57.4,54.2,30.32,SE,144,0.0,0.0,89,0.00,NA,NA,-99.99,VWS Version 10.38,2013-05-07 12:05:00,
2013-05-07 08:10:00,58.8,55.6,30.29,SE,144,0.0,0.0,89,0.00,NA,NA,-99.99,VWS Version 10.38,2013-05-07 12:10:00,
2013-05-07 08:15:00,60.1,56.8,30.29,East,85,0.0,0.0,89,0.00,NA,NA,-99.99,VWS Version 10.38,2013-05-07 12:15:00,
2013-05-07 08:20:00,61.5,57.9,30.29,ENE,58,0.0,0.0,88,0.00,NA,NA,-99.99,VWS Version 10.38,2013-05-07 12:20:00,
2013-05-07 08:30:00,63.3,51.4,30.29,East,101,0.0,0.0,65,0.00,NA,NA,-99.99,VWS Version 10.38,2013-05-07 12:30:00,
2013-05-07 08:35:00,65.1,43.3,30.29,SE,133,0.0,0.0,45,0.00,NA,NA,-99.99,VWS Version 10.38,2013-05-07 12:35:00,
2013-05-07 08:40:00,66.4,40.0,30.32,ENE,69,4.0,4.0,38,0.00,NA,NA,-99.99,VWS Version 10.38,2013-05-07 12:40:00,
2013-05-07 08:45:00,67.1,40.7,30.32,NNE,31,3.1,3.1,38,0.00,NA,NA,-99.99,VWS Version 10.38,2013-05-07 12:45:00,
2013-05-07 08:50:00,67.6,39.0,30.32,SE,133,3.1,3.1,35,0.00,NA,NA,-99.99,VWS Version 10.38,2013-05-07 12:50:00,
2013-05-07 08:55:00,68.4,38.9,30.32,SE,142,0.0,0.0,34,0.00,NA,NA,-99.99,VWS Version 10.38,2013-05-07 12:55:00,
2013-05-07 09:00:00,69.1,39.6,30.32,South,173,3.1,3.1,34,0.00,NA,NA,-99.99,VWS Version 10.38,2013-05-07 13:00:00,
2013-05-07 09:10:00,70.0,39.6,30.32,SSW,206,0.0,0.0,33,0.00,NA,NA,-99.99,VWS Version 10.38,2013-05-07 13:10:00,
2013-05-07 09:15:00,70.5,39.3,30.32,East,94,2.7,2.7,32,0.00,NA,NA,-99.99,VWS Version 10.38,2013-05-07 13:15:00,
2013-05-07 09:20:00,71.2,39.9,30.32,ESE,108,2.2,2.2,32,0.00,NA,NA,-99.99,VWS Version 10.38,2013-05-07 13:20:00,
2013-05-07 09:30:00,72.1,39.9,30.32,SSE,159,2.2,2.2,31,0.00,NA,NA,-99.99,VWS Version 10.38,2013-05-07 13:30:00,
2013-05-07 09:35:00,72.3,39.2,30.32,SSE,153,3.6,3.6,30,0.00,NA,NA,-99.99,VWS Version 10.38,2013-05-07 13:35:00,
2013-05-07 09:45:00,72.7,37.7,30.32,SW,224,0.0,0.0,28,0.00,NA,NA,-99.99,VWS Version 10.38,2013-05-07 13:45:00,
2013-05-07 09:50:00,73.0,38.0,30.32,SE,146,0.0,0.0,28,0.00,NA,NA,-99.99,VWS Version 10.38,2013-05-07 13:50:00,
2013-05-07 09:55:00,73.2,38.2,30.32,NE,48,5.4,5.4,28,0.00,NA,NA,-99.99,VWS Version 10.38,2013-05-07 13:55:00,
2013-05-07 10:00:00,73.4,36.5,30.32,ESE,111,2.7,2.7,26,0.00,NA,NA,-99.99,VWS Version 10.38,2013-05-07 14:00:00,
2013-05-07 10:05:00,73.6,35.6,30.32,SSW,206,0.0,0.0,25,0.00,NA,NA,-99.99,VWS Version 10.38,2013-05-07 14:05:00,
2013-05-07 10:10:00,73.6,36.6,30.32,ESE,117,2.7,2.7,26,0.00,NA,NA,-99.99,VWS Version 10.38,2013-05-07 14:10:00,
2013-05-07 10:15:00,73.8,36.8,30.32,ESE,105,0.0,0.0,26,0.00,NA,NA,-99.99,VWS Version 10.38,2013-05-07 14:15:00,
2013-05-07 10:24:00,74.5,36.4,30.32,ESE,110,2.2,2.2,25,0.00,NA,NA,-99.99,VWS Version 10.38,2013-05-07 14:24:00,
2013-05-07 10:29:00,74.8,36.7,30.32,SSE,152,4.0,4.0,25,0.00,NA,NA,-99.99,VWS Version 10.38,2013-05-07 14:29:00,
2013-05-07 10:34:00,75.2,36.0,30.32,South,186,2.7,2.7,24,0.00,NA,NA,-99.99,VWS Version 10.38,2013-05-07 14:34:00,
2013-05-07 10:39:00,75.2,36.0,30.32,East,82,3.6,3.6,24,0.00,NA,NA,-99.99,VWS Version 10.38,2013-05-07 14:39:00,
2013-05-07 10:44:00,75.6,37.3,30.32,SSE,161,4.9,4.9,25,0.00,NA,NA,-99.99,VWS Version 10.38,2013-05-07 14:44:00,
2013-05-07 10:49:00,75.7,37.5,30.32,East,80,5.8,5.8,25,0.00,NA,NA,-99.99,VWS Version 10.38,2013-05-07 14:49:00,
2013-05-07 10:59:00,75.7,36.4,30.32,NNW,338,4.9,4.9,24,0.00,NA,NA,-99.99,VWS Version 10.38,2013-05-07 14:59:00,
2013-05-07 11:04:00,75.9,36.6,30.32,NE,36,3.6,3.6,24,0.00,NA,NA,-99.99,VWS Version 10.38,2013-05-07 15:04:00,
2013-05-07 11:09:00,75.4,36.1,30.29,SSW,196,3.1,3.1,24,0.00,NA,NA,-99.99,VWS Version 10.38,2013-05-07 15:09:00,
2013-05-07 11:14:00,75.9,38.6,30.29,SE,146,2.7,2.7,26,0.00,NA,NA,-99.99,VWS Version 10.38,2013-05-07 15:14:00,
2013-05-07 11:19:00,76.8,37.3,30.29,NE,35,5.4,5.4,24,0.00,NA,NA,-99.99,VWS Version 10.38,2013-05-07 15:19:00,
2013-05-07 11:24:00,77.4,37.8,30.29,SSW,207,2.2,2.2,24,0.00,NA,NA,-99.99,VWS Version 10.38,2013-05-07 15:24:00,
2013-05-07 11:29:00,77.9,39.3,30.29,SSW,205,2.7,2.7,25,0.00,NA,NA,-99.99,VWS Version 10.38,2013-05-07 15:29:00,
2013-05-07 11:39:00,80.6,39.4,30.29,SW,227,5.4,5.4,23,0.00,NA,NA,-99.99,VWS Version 10.38,2013-05-07 15:39:00,
2013-05-07 11:44:00,81.5,39.0,30.29,SSE,148,5.4,5.4,22,0.00,NA,NA,-99.99,VWS Version 10.38,2013-05-07 15:44:00,
2013-05-07 11:49:00,81.1,38.7,30.29,SW,216,4.0,4.0,22,0.00,NA,NA,-99.99,VWS Version 10.38,2013-05-07 15:49:00,
2013-05-07 11:54:00,79.3,37.2,30.29,East,99,2.2,2.2,22,0.00,NA,NA,-99.99,VWS Version 10.38,2013-05-07 15:54:00,
2013-05-07 11:59:00,78.3,38.5,30.29,ENE,77,3.1,3.1,24,0.00,NA,NA,-99.99,VWS Version 10.38,2013-05-07 15:59:00,
2013-05-07 12:04:00,79.0,40.2,30.29,SSW,196,4.0,4.0,25,0.00,NA,NA,-99.99,VWS Version 10.38,2013-05-07 16:04:00,
2013-05-07 12:09:00,80.8,39.6,30.29,SSE,151,4.9,4.9,23,0.00,NA,NA,-99.99,VWS Version 10.38,2013-05-07 16:09:00,
2013-05-07 12:19:00,82.2,39.6,30.29,SSW,205,4.0,4.0,22,0.00,NA,NA,-99.99,VWS Version 10.38,2013-05-07 16:19:00,
2013-05-07 12:24:00,81.9,40.5,30.29,SSW,200,3.1,3.1,23,0.00,NA,NA,-99.99,VWS Version 10.38,2013-05-07 16:24:00,
2013-05-07 12:29:00,81.0,38.6,30.29,East,82,2.2,2.2,22,0.00,NA,NA,-99.99,VWS Version 10.38,2013-05-07 16:29:00,
2013-05-07 12:34:00,79.2,38.2,30.29,South,189,3.1,3.1,23,0.00,NA,NA,-99.99,VWS Version 10.38,2013-05-07 16:34:00,
2013-05-07 12:39:00,78.1,38.4,30.29,East,90,5.4,5.4,24,0.00,NA,NA,-99.99,VWS Version 10.38,2013-05-07 16:39:00,
2013-05-07 12:44:00,77.0,39.5,30.29,SSE,166,0.0,0.0,26,0.00,NA,NA,-99.99,VWS Version 10.38,2013-05-07 16:44:00,
2013-05-07 12:49:00,78.4,40.8,30.29,South,175,3.1,3.1,26,0.00,NA,NA,-99.99,VWS Version 10.38,2013-05-07 16:49:00,
2013-05-07 12:54:00,79.3,40.5,30.26,ENE,73,4.9,4.9,25,0.00,NA,NA,-99.99,VWS Version 10.38,2013-05-07 16:54:00,
2013-05-07 13:04:00,79.0,39.2,30.26,SE,143,2.7,2.7,24,0.00,NA,NA,-99.99,VWS Version 10.38,2013-05-07 17:04:00,
2013-05-07 13:09:00,77.5,39.0,30.26,East,85,3.1,3.1,25,0.00,NA,NA,-99.99,VWS Version 10.38,2013-05-07 17:09:00,
2013-05-07 13:14:00,76.8,40.3,30.26,ESE,115,4.0,4.0,27,0.00,NA,NA,-99.99,VWS Version 10.38,2013-05-07 17:14:00,
2013-05-07 13:19:00,76.6,42.0,30.26,SE,129,3.1,3.1,29,0.00,NA,NA,-99.99,VWS Version 10.38,2013-05-07 17:19:00,
2013-05-07 13:24:00,77.7,41.1,30.26,East,81,3.6,3.6,27,0.00,NA,NA,-99.99,VWS Version 10.38,2013-05-07 17:24:00,
2013-05-07 13:29:00,78.8,43.9,30.26,WSW,247,6.3,6.3,29,0.00,NA,NA,-99.99,VWS Version 10.38,2013-05-07 17:29:00,
2013-05-07 13:34:00,79.2,40.3,30.26,South,183,2.2,2.2,25,0.00,NA,NA,-99.99,VWS Version 10.38,2013-05-07 17:34:00,
2013-05-07 13:44:00,79.3,40.5,30.26,SSW,212,0.0,0.0,25,0.00,NA,NA,-99.99,VWS Version 10.38,2013-05-07 17:44:00,
2013-05-07 13:49:00,79.9,42.0,30.26,SE,129,5.4,5.4,26,0.00,NA,NA,-99.99,VWS Version 10.38,2013-05-07 17:49:00,
2013-05-07 13:54:00,80.4,42.4,30.26,East,96,5.8,5.8,26,0.00,NA,NA,-99.99,VWS Version 10.38,2013-05-07 17:54:00,
2013-05-07 13:59:00,81.1,42.0,30.26,SSE,167,2.2,2.2,25,0.00,NA,NA,-99.99,VWS Version 10.38,2013-05-07 17:59:00,
2013-05-07 14:04:00,80.4,39.3,30.26,SE,124,3.1,3.1,23,0.00,NA,NA,-99.99,VWS Version 10.38,2013-05-07 18:04:00,
2013-05-07 14:09:00,77.9,40.3,30.26,SE,138,3.1,3.1,26,0.00,NA,NA,-99.99,VWS Version 10.38,2013-05-07 18:09:00,
2013-05-07 14:14:00,77.2,43.4,30.26,SE,131,3.6,3.6,30,0.00,NA,NA,-99.99,VWS Version 10.38,2013-05-07 18:14:00,
2013-05-07 14:24:00,77.4,44.4,30.26,SSW,199,2.7,2.7,31,0.00,NA,NA,-99.99,VWS Version 10.38,2013-05-07 18:24:00,
2013-05-07 14:29:00,77.7,44.7,30.26,West,277,3.6,3.6,31,0.00,NA,NA,-99.99,VWS Version 10.38,2013-05-07 18:29:00,
2013-05-07 14:39:00,78.8,44.8,30.26,SE,139,5.8,5.8,30,0.00,NA,NA,-99.99,VWS Version 10.38,2013-05-07 18:39:00,
2013-05-07 14:44:00,79.2,45.1,30.26,SE,143,5.8,5.8,30,0.00,NA,NA,-99.99,VWS Version 10.38,2013-05-07 18:44:00,
2013-05-07 14:49:00,78.6,44.6,30.26,South,180,3.6,3.6,30,0.00,NA,NA,-99.99,VWS Version 10.38,2013-05-07 18:49:00,
2013-05-07 14:54:00,78.6,44.6,30.26,SW,225,5.8,5.8,30,0.00,NA,NA,-99.99,VWS Version 10.38,2013-05-07 18:54:00,
2013-05-07 14:59:00,78.4,44.5,30.26,SSW,211,7.6,7.6,30,0.00,NA,NA,-99.99,VWS Version 10.38,2013-05-07 18:59:00,
2013-05-07 15:09:00,77.9,44.0,30.26,South,181,4.5,4.5,30,0.00,NA,NA,-99.99,VWS Version 10.38,2013-05-07 19:09:00,
2013-05-07 15:14:00,77.7,44.7,30.26,ESE,117,2.7,2.7,31,0.00,NA,NA,-99.99,VWS Version 10.38,2013-05-07 19:14:00,
2013-05-07 15:19:00,78.3,45.2,30.26,SSW,193,6.3,6.3,31,0.00,NA,NA,-99.99,VWS Version 10.38,2013-05-07 19:19:00,
2013-05-07 15:24:00,78.1,44.2,30.23,South,184,0.0,0.0,30,0.00,NA,NA,-99.99,VWS Version 10.38,2013-05-07 19:24:00,
2013-05-07 15:29:00,77.0,44.1,30.23,SE,131,5.8,5.8,31,0.00,NA,NA,-99.99,VWS Version 10.38,2013-05-07 19:29:00,
2013-05-07 15:34:00,76.1,43.3,30.23,ESE,106,3.1,3.1,31,0.00,NA,NA,-99.99,VWS Version 10.38,2013-05-07 19:34:00,
2013-05-07 15:44:00,76.5,44.4,30.23,SSE,148,3.6,3.6,32,0.00,NA,NA,-99.99,VWS Version 10.38,2013-05-07 19:44:00,
2013-05-07 15:49:00,76.3,44.3,30.23,ESE,113,4.9,4.9,32,0.00,NA,NA,-99.99,VWS Version 10.38,2013-05-07 19:49:00,
2013-05-07 15:54:00,76.3,43.5,30.23,SSE,158,5.4,5.4,31,0.00,NA,NA,-99.99,VWS Version 10.38,2013-05-07 19:54:00,
2013-05-07 15:59:00,76.3,44.3,30.23,ENE,70,2.2,2.2,32,0.00,NA,NA,-99.99,VWS Version 10.38,2013-05-07 19:59:00,
2013-05-07 16:04:00,76.6,43.8,30.23,SE,126,2.7,2.7,31,0.00,NA,NA,-99.99,VWS Version 10.38,2013-05-07 20:04:00,
2013-05-07 16:09:00,76.6,43.8,30.23,SE,139,8.1,8.1,31,0.00,NA,NA,-99.99,VWS Version 10.38,2013-05-07 20:09:00,
2013-05-07 16:14:00,76.6,43.8,30.23,SSE,159,4.0,4.0,31,0.00,NA,NA,-99.99,VWS Version 10.38,2013-05-07 20:14:00,
2013-05-07 16:24:00,76.5,43.6,30.23,SE,138,5.8,5.8,31,0.00,NA,NA,-99.99,VWS Version 10.38,2013-05-07 20:24:00,
2013-05-07 16:29:00,76.8,43.9,30.23,SW,225,4.0,4.0,31,0.00,NA,NA,-99.99,VWS Version 10.38,2013-05-07 20:29:00,
2013-05-07 16:34:00,76.5,43.6,30.23,SSE,155,3.1,3.1,31,0.00,NA,NA,-99.99,VWS Version 10.38,2013-05-07 20:34:00,
2013-05-07 16:39:00,75.9,43.1,30.23,East,100,3.6,3.6,31,0.00,NA,NA,-99.99,VWS Version 10.38,2013-05-07 20:39:00,
2013-05-07 16:44:00,75.6,42.8,30.23,SE,127,5.8,5.8,31,0.00,NA,NA,-99.99,VWS Version 10.38,2013-05-07 20:44:00,
2013-05-07 16:49:00,75.2,42.5,30.23,SSW,207,3.1,3.1,31,0.00,NA,NA,-99.99,VWS Version 10.38,2013-05-07 20:49:00,
2013-05-07 16:59:00,74.5,42.7,30.23,SSE,149,4.9,4.9,32,0.00,NA,NA,-99.99,VWS Version 10.38,2013-05-07 20:59:00,
2013-05-07 17:04:00,74.3,42.6,30.23,SSW,192,4.0,4.0,32,0.00,NA,NA,-99.99,VWS Version 10.38,2013-05-07 21:04:00,
2013-05-07 17:09:00,74.3,42.6,30.23,SE,142,3.6,3.6,32,0.00,NA,NA,-99.99,VWS Version 10.38,2013-05-07 21:09:00,
2013-05-07 17:14:00,74.3,42.6,30.23,SSW,198,3.1,3.1,32,0.00,NA,NA,-99.99,VWS Version 10.38,2013-05-07 21:14:00,
2013-05-07 17:19:00,74.7,43.7,30.23,ESE,123,5.4,5.4,33,0.00,NA,NA,-99.99,VWS Version 10.38,2013-05-07 21:19:00,
2013-05-07 17:24:00,74.7,42.9,30.23,SE,145,4.0,4.0,32,0.00,NA,NA,-99.99,VWS Version 10.38,2013-05-07 21:24:00,
2013-05-07 17:29:00,74.5,42.7,30.23,NNE,19,5.4,5.4,32,0.00,NA,NA,-99.99,VWS Version 10.38,2013-05-07 21:29:00,
2013-05-07 17:34:00,74.1,42.4,30.23,SE,143,2.7,2.7,32,0.00,NA,NA,-99.99,VWS Version 10.38,2013-05-07 21:34:00,
2013-05-07 17:44:00,73.4,42.6,30.23,SSE,166,4.9,4.9,33,0.00,NA,NA,-99.99,VWS Version 10.38,2013-05-07 21:44:00,
2013-05-07 17:49:00,73.0,43.0,30.23,SW,219,4.9,4.9,34,0.00,NA,NA,-99.99,VWS Version 10.38,2013-05-07 21:49:00,
2013-05-07 17:54:00,72.9,42.9,30.23,SSW,196,4.9,4.9,34,0.00,NA,NA,-99.99,VWS Version 10.38,2013-05-07 21:54:00,
2013-05-07 18:00:00,72.5,42.6,30.23,SW,224,3.6,3.6,34,0.00,NA,NA,-99.99,VWS Version 10.38,2013-05-07 22:00:00,
2013-05-07 18:05:00,72.1,43.0,30.23,ESE,118,3.1,3.1,35,0.00,NA,NA,-99.99,VWS Version 10.38,2013-05-07 22:05:00,
2013-05-07 18:10:00,71.6,42.5,30.23,ESE,107,3.6,3.6,35,0.00,NA,NA,-99.99,VWS Version 10.38,2013-05-07 22:10:00,
2013-05-07 18:15:00,71.1,42.8,30.23,South,190,4.0,4.0,36,0.00,NA,NA,-99.99,VWS Version 10.38,2013-05-07 22:15:00,
2013-05-07 18:20:00,70.3,42.9,30.23,SSE,150,3.1,3.1,37,0.00,NA,NA,-99.99,VWS Version 10.38,2013-05-07 22:20:00,
2013-05-07 18:40:00,68.5,43.9,30.23,South,184,0.0,0.0,41,0.00,NA,NA,-99.99,VWS Version 10.38,2013-05-07 22:40:00,
2013-05-07 18:45:00,68.5,44.6,30.23,SSW,197,0.0,0.0,42,0.00,NA,NA,-99.99,VWS Version 10.38,2013-05-07 22:45:00,
2013-05-07 18:50:00,68.4,44.4,30.23,SSW,204,0.0,0.0,42,0.00,NA,NA,-99.99,VWS Version 10.38,2013-05-07 22:50:00,
2013-05-07 18:55:00,68.2,44.9,30.23,SW,217,3.1,3.1,43,0.00,NA,NA,-99.99,VWS Version 10.38,2013-05-07 22:55:00,
2013-05-07 19:00:00,67.8,44.5,30.23,SW,220,2.7,2.7,43,0.00,NA,NA,-99.99,VWS Version 10.38,2013-05-07 23:00:00,
2013-05-07 19:05:00,67.5,44.8,30.23,South,177,3.6,3.6,44,0.00,NA,NA,-99.99,VWS Version 10.38,2013-05-07 23:05:00,
2013-05-07 19:15:00,66.7,44.2,30.26,East,99,0.0,0.0,44,0.00,NA,NA,-99.99,VWS Version 10.38,2013-05-07 23:15:00,
2013-05-07 19:20:00,66.6,44.0,30.26,SSE,166,0.0,0.0,44,0.00,NA,NA,-99.99,VWS Version 10.38,2013-05-07 23:20:00,
2013-05-07 19:25:00,66.2,43.7,30.26,SSE,149,0.0,0.0,44,0.00,NA,NA,-99.99,VWS Version 10.38,2013-05-07 23:25:00,
2013-05-07 19:30:00,65.8,43.9,30.26,SSE,149,0.0,0.0,45,0.00,NA,NA,-99.99,VWS Version 10.38,2013-05-07 23:30:00,
2013-05-07 19:35:00,65.5,43.6,30.26,SSE,149,0.0,0.0,45,0.00,NA,NA,-99.99,VWS Version 10.38,2013-05-07 23:35:00,
2013-05-07 19:40:00,65.1,43.8,30.26,SSE,149,0.0,0.0,46,0.00,NA,NA,-99.99,VWS Version 10.38,2013-05-07 23:40:00,
2013-05-07 19:45:00,64.8,43.5,30.26,SE,142,0.0,0.0,46,0.00,NA,NA,-99.99,VWS Version 10.38,2013-05-07 23:45:00,
2013-05-07 19:50:00,64.4,43.2,30.26,SE,142,0.0,0.0,46,0.00,NA,NA,-99.99,VWS Version 10.38,2013-05-07 23:50:00,
2013-05-07 20:00:00,63.9,44.3,30.26,SE,135,0.0,0.0,49,0.00,NA,NA,-99.99,VWS Version 10.38,2013-05-08 00:00:00,
2013-05-07 20:05:00,63.5,44.5,30.26,SE,132,0.0,0.0,50,0.00,NA,NA,-99.99,VWS Version 10.38,2013-05-08 00:05:00,
2013-05-07 20:10:00,63.3,44.4,30.26,SE,127,0.0,0.0,50,0.00,NA,NA,-99.99,VWS Version 10.38,2013-05-08 00:10:00,
2013-05-07 20:15:00,63.0,45.1,30.26,SSE,155,0.0,0.0,52,0.00,NA,NA,-99.99,VWS Version 10.38,2013-05-08 00:15:00,
2013-05-07 20:20:00,62.6,44.8,30.26,SSE,155,0.0,0.0,52,0.00,NA,NA,-99.99,VWS Version 10.38,2013-05-08 00:20:00,
2013-05-07 20:25:00,62.2,44.4,30.26,SSE,157,0.0,0.0,52,0.00,NA,NA,-99.99,VWS Version 10.38,2013-05-08 00:25:00,
2013-05-07 20:30:00,62.1,44.8,30.26,SSE,157,0.0,0.0,53,0.00,NA,NA,-99.99,VWS Version 10.38,2013-05-08 00:30:00,
2013-05-07 20:35:00,61.7,44.4,30.26,SSE,156,0.0,0.0,53,0.00,NA,NA,-99.99,VWS Version 10.38,2013-05-08 00:35:00,
2013-05-07 20:44:00,60.6,43.4,30.26,SSE,156,0.0,0.0,53,0.00,NA,NA,-99.99,VWS Version 10.38,2013-05-08 00:44:00,
2013-05-07 20:49:00,60.1,42.9,30.26,SSE,156,0.0,0.0,53,0.00,NA,NA,-99.99,VWS Version 10.38,2013-05-08 00:49:00,
2013-05-07 20:54:00,59.7,43.1,30.29,SSE,156,0.0,0.0,54,0.00,NA,NA,-99.99,VWS Version 10.38,2013-05-08 00:54:00,
2013-05-07 20:59:00,59.4,43.2,30.29,SE,127,0.0,0.0,55,0.00,NA,NA,-99.99,VWS Version 10.38,2013-05-08 00:59:00,
2013-05-07 21:04:00,59.2,43.5,30.29,SE,127,0.0,0.0,56,0.00,NA,NA,-99.99,VWS Version 10.38,2013-05-08 01:04:00,
2013-05-07 21:09:00,58.8,43.6,30.29,SE,127,0.0,0.0,57,0.00,NA,NA,-99.99,VWS Version 10.38,2013-05-08 01:09:00,
2013-05-07 21:14:00,58.6,43.9,30.29,SE,127,0.0,0.0,58,0.00,NA,NA,-99.99,VWS Version 10.38,2013-05-08 01:14:00,
2013-05-07 21:24:00,58.3,44.5,30.29,SE,132,0.0,0.0,60,0.00,NA,NA,-99.99,VWS Version 10.38,2013-05-08 01:24:00,
2013-05-07 21:29:00,58.1,44.3,30.29,SE,132,0.0,0.0,60,0.00,NA,NA,-99.99,VWS Version 10.38,2013-05-08 01:29:00,
2013-05-07 21:34:00,57.9,45.0,30.29,SE,132,0.0,0.0,62,0.00,NA,NA,-99.99,VWS Version 10.38,2013-05-08 01:34:00,
2013-05-07 21:39:00,57.7,45.2,30.29,SE,132,0.0,0.0,63,0.00,NA,NA,-99.99,VWS Version 10.38,2013-05-08 01:39:00,
2013-05-07 21:44:00,57.6,45.1,30.29,SE,132,0.0,0.0,63,0.00,NA,NA,-99.99,VWS Version 10.38,2013-05-08 01:44:00,
2013-05-07 21:49:00,57.6,45.5,30.29,SE,132,0.0,0.0,64,0.00,NA,NA,-99.99,VWS Version 10.38,2013-05-08 01:49:00,
2013-05-07 21:54:00,57.4,45.7,30.29,SE,132,0.0,0.0,65,0.00,NA,NA,-99.99,VWS Version 10.38,2013-05-08 01:54:00,
2013-05-07 21:59:00,57.4,45.7,30.29,SE,132,0.0,0.0,65,0.00,NA,NA,-99.99,VWS Version 10.38,2013-05-08 01:59:00,
2013-05-07 22:09:00,57.4,46.1,30.29,SE,132,0.0,0.0,66,0.00,NA,NA,-99.99,VWS Version 10.38,2013-05-08 02:09:00,
2013-05-07 22:14:00,57.2,46.4,30.29,SE,132,0.0,0.0,67,0.00,NA,NA,-99.99,VWS Version 10.38,2013-05-08 02:14:00,
2013-05-07 22:19:00,57.2,46.4,30.29,SE,132,0.0,0.0,67,0.00,NA,NA,-99.99,VWS Version 10.38,2013-05-08 02:19:00,
2013-05-07 22:24:00,57.2,46.8,30.29,SE,132,0.0,0.0,68,0.00,NA,NA,-99.99,VWS Version 10.38,2013-05-08 02:24:00,
2013-05-07 22:29:00,57.2,46.8,30.29,SE,132,0.0,0.0,68,0.00,NA,NA,-99.99,VWS Version 10.38,2013-05-08 02:29:00,
2013-05-07 22:39:00,57.2,47.1,30.29,SE,132,0.0,0.0,69,0.00,NA,NA,-99.99,VWS Version 10.38,2013-05-08 02:39:00,
2013-05-07 22:44:00,57.2,47.1,30.29,SE,132,0.0,0.0,69,0.00,NA,NA,-99.99,VWS Version 10.38,2013-05-08 02:44:00,
2013-05-07 22:49:00,57.0,47.3,30.29,SE,132,0.0,0.0,70,0.00,NA,NA,-99.99,VWS Version 10.38,2013-05-08 02:49:00,
2013-05-07 22:54:00,57.0,47.3,30.29,East,100,0.0,0.0,70,0.00,NA,NA,-99.99,VWS Version 10.38,2013-05-08 02:54:00,
2013-05-07 22:59:00,57.2,47.5,30.29,East,100,0.0,0.0,70,0.00,NA,NA,-99.99,VWS Version 10.38,2013-05-08 02:59:00,
2013-05-07 23:04:00,57.4,48.1,30.29,East,100,0.0,0.0,71,0.00,NA,NA,-99.99,VWS Version 10.38,2013-05-08 03:04:00,
2013-05-07 23:09:00,57.4,48.1,30.29,East,100,0.0,0.0,71,0.00,NA,NA,-99.99,VWS Version 10.38,2013-05-08 03:09:00,
2013-05-07 23:14:00,57.6,48.2,30.29,East,100,0.0,0.0,71,0.00,NA,NA,-99.99,VWS Version 10.38,2013-05-08 03:14:00,
2013-05-07 23:19:00,57.6,48.2,30.29,East,100,0.0,0.0,71,0.00,NA,NA,-99.99,VWS Version 10.38,2013-05-08 03:19:00,
2013-05-07 23:24:00,57.4,48.1,30.29,East,100,0.0,0.0,71,0.00,NA,NA,-99.99,VWS Version 10.38,2013-05-08 03:24:00,
2013-05-07 23:29:00,57.4,48.1,30.29,East,100,0.0,0.0,71,0.00,NA,NA,-99.99,VWS Version 10.38,2013-05-08 03:29:00,
2013-05-07 23:34:00,57.4,48.4,30.29,NE,52,0.0,0.0,72,0.00,NA,NA,-99.99,VWS Version 10.38,2013-05-08 03:34:00,
2013-05-07 23:39:00,57.4,48.4,30.29,SSE,150,0.0,0.0,72,0.00,NA,NA,-99.99,VWS Version 10.38,2013-05-08 03:39:00,
2013-05-07 23:44:00,57.4,48.4,30.29,SSE,150,0.0,0.0,72,0.00,NA,NA,-99.99,VWS Version 10.38,2013-05-08 03:44:00,
2013-05-07 23:49:00,57.4,48.4,30.29,SSE,150,0.0,0.0,72,0.00,NA,NA,-99.99,VWS Version 10.38,2013-05-08 03:49:00,
2013-05-07 23:54:00,57.2,48.3,30.29,SSE,150,0.0,0.0,72,0.00,NA,NA,-99.99,VWS Version 10.38,2013-05-08 03:54:00,
2013-05-07 23:59:00,57.2,48.3,30.29,SSE,150,0.0,0.0,72,0.00,NA,NA,-99.99,VWS Version 10.38,2013-05-08 03:59:00,